Location: Eisengraberamt
(48.5500°N, 15.4333°E)
Time: 14:05:51
(UTC+00:00)

Daily predictions for brighter satellites

Satellite Brightness Start Highest point End
(mag) Time Altitude Azimuth Time Altitude Azimuth Time Altitude Azimuth
Cosmos 1570 Rocket 4.2 18:47:31 10° NNW 18:52:48 82° WSW 18:58:01 10° SSE
ATLAS 5 CENTAUR R/B 3.3 18:49:46 10° NNW 18:54:33 34° NE 19:00:08 10° E
Cosmos 1842 Rocket 3.6 18:50:24 10° S 18:54:51 71° E 18:59:20 10° NNE
Cosmos 1745 Rocket 4.5 18:54:37 10° N 19:00:34 44° ENE 19:06:26 10° SE
ARIANE 5 R/B 4.3 18:57:46 10° ESE 19:00:48 19° ENE 19:03:51 10° NNE
[s.n.48335] 4.4 18:59:41 10° SSE 19:01:06 13° SE 19:02:31 10° ESE
[s.n.48334] 4.4 18:59:46 10° SSE 19:01:10 13° SE 19:02:35 10° ESE
SL-08 ROCKET BODY 4.5 18:55:18 10° N 19:01:12 62° ENE 19:06:59 10° SSE
[s.n.48333] 4.4 18:59:58 10° SSE 19:01:15 13° SE 19:02:32 10° ESE
[s.n.48332] 4.4 18:59:51 10° SSE 19:01:16 13° SE 19:02:41 10° ESE
[s.n.48331] 4.4 18:59:58 10° S 19:01:24 13° SE 19:02:50 10° ESE
[s.n.48330] 4.4 19:00:13 10° SSE 19:01:30 13° SE 19:02:48 10° ESE
[s.n.48329] 4.4 19:00:08 10° S 19:01:34 13° SE 19:03:00 10° ESE
USA 306 4.2 18:57:32 10° W 19:01:35 41° N 19:05:40 10° ENE
[s.n.48328] 4.4 19:00:21 10° SSE 19:01:39 13° SE 19:02:57 10° ESE
[s.n.48327] 4.4 19:00:24 10° SSE 19:01:43 13° SE 19:03:01 10° ESE
[s.n.48326] 4.4 19:00:22 10° SSE 19:01:46 13° SE 19:03:11 10° ESE
ERS-2 3.1 18:59:25 10° N 19:02:58 51° WNW 19:06:29 10° SSW
Ariane Rocket 3.0 18:59:13 10° SSE 19:04:16 90° W 19:09:23 10° NNW
[s.n.48324] 4.3 19:03:00 10° S 19:04:34 14° SE 19:06:08 10° E
Cosmos 921 Rocket 3.6 19:00:22 10° NNW 19:04:36 56° WSW 19:08:44 10° S
[s.n.48325] 4.3 19:03:37 10° S 19:05:12 15° SE 19:06:49 10° E
[s.n.48323] 4.3 19:03:52 10° S 19:05:22 14° SE 19:06:51 10° ESE
[s.n.48321] 4.3 19:04:05 10° S 19:05:35 14° SE 19:07:04 10° ESE
[s.n.48320] 4.3 19:04:07 10° S 19:05:38 14° SE 19:07:08 10° ESE
[s.n.48322] 4.3 19:04:01 10° S 19:05:38 15° SE 19:07:15 10° E
[s.n.48319] 4.3 19:04:13 10° S 19:05:43 14° SE 19:07:13 10° ESE
[s.n.48318] 4.3 19:04:13 10° S 19:05:44 14° SE 19:07:14 10° ESE
[s.n.48317] 4.3 19:04:22 10° S 19:05:53 14° SE 19:07:24 10° ESE
[s.n.48316] 4.3 19:04:27 10° S 19:05:58 14° SE 19:07:29 10° ESE
[s.n.48315] 4.3 19:04:24 10° S 19:06:02 15° SE 19:07:40 10° E
[s.n.48314] 4.3 19:04:28 10° S 19:06:07 15° SE 19:07:45 10° E
[s.n.48313] 4.3 19:04:34 10° S 19:06:13 15° SE 19:07:51 10° E
[s.n.48312] 4.3 19:04:39 10° S 19:06:17 15° SE 19:07:55 10° E
[s.n.48311] 4.3 19:04:44 10° S 19:06:22 15° SE 19:08:01 10° E
[s.n.48310] 4.3 19:04:48 10° S 19:06:24 15° SE 19:08:00 10° E
[s.n.48309] 4.3 19:04:54 10° S 19:06:29 15° SE 19:08:05 10° E
[s.n.48308] 4.3 19:04:56 10° S 19:06:36 15° SE 19:08:16 10° E
[s.n.48307] 4.2 19:05:09 10° S 19:06:42 14° SE 19:08:15 10° E
[s.n.48306] 4.3 19:05:05 10° S 19:06:44 15° SE 19:08:24 10° E
[s.n.48305] 4.3 19:05:12 10° S 19:06:51 15° SE 19:08:31 10° E
[s.n.48304] 4.2 19:05:22 10° S 19:06:55 15° SE 19:08:29 10° E
[s.n.48303] 4.3 19:05:20 10° S 19:07:00 15° SE 19:08:41 10° E
[s.n.48302] 4.2 19:05:24 10° S 19:07:05 15° SE 19:08:45 10° E
[s.n.48301] 4.2 19:05:37 10° S 19:07:11 15° SE 19:08:46 10° E
[s.n.48300] 4.2 19:05:39 10° S 19:07:13 15° SE 19:08:48 10° E
[s.n.48299] 4.2 19:05:46 10° S 19:07:21 15° SE 19:08:56 10° E
[s.n.48298] 4.2 19:05:44 10° S 19:07:24 15° SE 19:09:06 10° E
[s.n.48297] 4.2 19:05:49 10° S 19:07:30 15° SE 19:09:12 10° E
[s.n.48296] 4.2 19:05:53 10° S 19:07:35 15° SE 19:09:17 10° E
[s.n.48295] 4.2 19:06:06 10° S 19:07:41 15° SE 19:09:17 10° E
[s.n.48294] 4.2 19:06:11 10° S 19:07:47 15° SE 19:09:23 10° E
CREW DRAGON DEMO-1 DEB 3.0 19:05:12 10° W 19:07:50 58° NNW 19:10:27 10° ENE
[s.n.48293] 4.2 19:06:15 10° S 19:07:51 15° SE 19:09:27 10° E
[s.n.48292] 4.2 19:06:11 10° S 19:07:54 15° SE 19:09:36 10° E
[s.n.48291] 4.2 19:06:24 10° S 19:08:01 15° SE 19:09:37 10° E
[s.n.48290] 4.2 19:06:26 10° S 19:08:03 15° SE 19:09:39 10° E
[s.n.48289] 4.2 19:06:34 10° S 19:08:11 15° SE 19:09:48 10° E
[s.n.48288] 4.2 19:06:37 10° S 19:08:14 15° SE 19:09:51 10° E
[s.n.48286] 4.2 19:06:41 10° S 19:08:18 15° SE 19:09:55 10° E
[s.n.48287] 4.2 19:06:42 10° S 19:08:19 15° SE 19:09:56 10° E
[s.n.48285] 4.2 19:06:53 10° S 19:08:30 15° SE 19:10:08 10° E
Cosmos 1805 Rocket 4.0 19:04:25 10° N 19:08:34 43° ENE 19:12:42 10° SSE
[s.n.48284] 4.2 19:06:57 10° S 19:08:34 15° SE 19:10:12 10° E
[s.n.48283] 4.2 19:07:03 10° S 19:08:40 15° SE 19:10:19 10° E
[s.n.48282] 4.2 19:07:07 10° S 19:08:46 15° SE 19:10:23 10° E
[s.n.48281] 4.2 19:07:06 10° S 19:08:49 16° SE 19:10:35 10° E
[s.n.48280] 4.2 19:07:17 10° S 19:08:56 15° SE 19:10:34 10° E
[s.n.48279] 4.2 19:07:21 10° S 19:08:59 15° SE 19:10:38 10° E
[s.n.48278] 4.2 19:07:18 10° S 19:09:03 16° SE 19:10:49 10° E
[s.n.48277] 4.2 19:07:30 10° S 19:09:09 15° SE 19:10:49 10° E
[s.n.48276] 4.2 19:07:30 10° S 19:09:16 16° SE 19:11:02 10° E
Gbstr 26 Del rocket 4.4 19:02:43 10° SW 19:10:44 76° SSE 19:17:44 10° ENE
NOSS 2-2 (D) 4.5 19:05:39 10° NW 19:10:54 83° NE 19:18:17 10° SE
FALCON 9 DEB 3.0 19:09:05 10° WNW 19:12:05 60° SSW 19:14:46 12° SE
MOS 1 4.5 19:06:48 10° S 19:12:27 77° WSW 19:18:10 10° NNW
USA 186 4.0 19:12:20 10° SW 19:14:15 18° W 19:16:06 10° NW
Resurs 1-3 3.7 19:10:52 10° S 19:15:16 79° WSW 19:19:40 10° NNW
Cosmos 1437 Rocket 3.2 19:11:41 10° SSE 19:15:18 41° E 19:19:01 10° NNE
SPOT 3 Rocket 3.7 19:10:54 10° SSE 19:15:59 63° ENE 19:21:05 10° N
Cosmos 1633 Rocket 4.5 19:14:52 10° NNE 19:18:25 23° ENE 19:21:31 12° ESE
FALCON 9 DEB 3.3 19:16:06 10° WNW 19:19:03 50° SSW 19:21:29 14° SE
SPOT 5 4.4 19:16:19 10° ESE 19:20:16 24° ENE 19:24:21 10° N
S3M 4.3 19:14:51 10° SSE 19:21:00 52° E 19:27:08 10° NNE
Cosmos 1743 Rocket 3.7 19:17:58 10° NNW 19:22:19 79° W 19:26:39 10° S
Cosmos 1782 4.4 19:21:24 13° ESE 19:23:31 18° E 19:26:16 10° NE
FALCON 9 DEB 3.1 19:21:38 10° WNW 19:24:38 57° SSW 19:26:53 16° SE
BREEZE M DEB (TANK) 2.6 19:17:51 10° W 19:24:56 77° N 19:27:32 10° E
USA 307 4.2 19:22:05 10° WNW 19:26:08 39° N 19:30:11 10° ENE
Cosmos 2082 Rocket 4.4 19:24:16 10° N 19:27:25 15° NNE 19:30:33 10° ENE
ERBS 4.2 19:25:04 10° W 19:28:03 32° NNW 19:31:05 10° NE
USA 290 3.2 19:28:38 10° N 19:31:40 34° ENE 19:33:41 17° ESE
BREEZE-M DEB (TANK) 1.3 19:31:58 10° W 19:34:38 70° N 19:36:29 12° E
Cosmos 1500 Rocket 4.2 19:30:42 10° NNW 19:35:02 58° W 19:39:20 10° S
Cosmos 1486 Rocket 4.1 19:31:38 10° S 19:36:50 57° ESE 19:42:05 10° NNE
CARTOSAT-1 4.4 19:33:54 15° SE 19:36:55 35° ENE 19:40:51 10° N
Cosmos 968 Rocket 3.4 19:33:30 10° SSW 19:38:44 72° ESE 19:43:58 10° NNE
CZ-4C R/B 3.7 19:32:26 10° NW 19:38:50 42° NE 19:46:22 10° ESE
Terra 3.3 19:36:02 13° ESE 19:39:08 23° ENE 19:42:52 10° N
USA 308 4.2 19:35:33 10° WNW 19:39:36 39° N 19:43:40 10° ENE
Cosmos 1553 Rocket 4.1 19:34:41 10° S 19:40:49 83° W 19:47:04 10° N
Cosmos 1666 Rocket 4.0 19:38:04 10° N 19:42:20 45° ENE 19:45:18 18° SE
Meteor 1-25 Rocket 4.3 19:38:48 10° N 19:44:39 70° ENE 19:49:38 14° SSE
USA 245 2.5 19:45:31 28° SE 19:46:20 42° ENE 19:48:30 10° N
Cosmos 2221 4.2 19:42:38 10° SW 19:46:35 35° WNW 19:50:35 10° N
Resurs 01 Rocket 2.0 19:43:16 10° S 19:47:41 62° WSW 19:52:07 10° NNW
Cosmos 1602 4.0 19:49:50 10° N 19:53:37 52° ENE 19:55:47 23° SE
IGS 5A 4.0 19:51:07 11° S 19:55:06 58° W 19:59:14 10° NNW
Cosmos 1242 Rocket 2.7 19:52:52 18° SSE 19:55:17 52° E 19:58:47 10° NNE
Cosmos 2278 Rocket 3.8 19:54:32 15° ESE 19:55:24 16° E 19:58:37 10° ENE
SL-4 R/B 2.8 19:51:58 10° WNW 19:56:13 45° SSW 19:58:56 21° SSE
DELTA 2 R/B (1) 4.4 19:52:26 10° WSW 19:57:18 32° S 20:00:02 21° SE
FALCON 9 DEB 4.1 19:56:50 10° W 19:59:31 28° SW 20:00:34 22° S
USA 215 4.3 19:53:44 10° ENE 19:59:50 44° N 20:05:58 10° WNW
CZ-2C R/B 3.6 20:00:22 10° NNE 20:04:50 90° E 20:09:21 10° SSW
X-37B 1.0 20:03:25 10° WSW 20:06:29 44° S 20:07:15 35° SE
Cosmos 1606 4.3 20:03:06 10° SW 20:06:34 34° WNW 20:10:04 10° N
Landsat 7 4.5 20:05:16 12° S 20:09:38 52° W 20:14:18 10° NNW
BREEZE-M DEB (TANK) 4.0 19:55:33 10° WSW 20:09:50 89° NNW 20:13:24 10° ENE
SJ 16-02 3.4 20:10:20 13° E 20:10:20 13° E 20:11:58 10° ENE
Sich 1 3.5 20:05:58 10° NNW 20:10:13 58° W 20:13:39 15° S
Cosmos 773 Rocket 4.4 20:05:08 10° NNW 20:10:21 53° ENE 20:13:21 24° SE
Spot 2 Rocket 3.4 20:08:53 20° SSE 20:12:23 89° ENE 20:17:29 10° NNW
Cosmos 1844 Rocket 2.8 20:06:56 10° SSW 20:12:30 80° WNW 20:18:08 10° NNE
CRYOSAT 2 4.4 20:10:16 18° S 20:13:58 88° W 20:18:54 10° N
Meteor 1-14 Rocket 4.4 20:14:56 10° N 20:20:52 68° ENE 20:24:16 26° SSE
Meteor 1-26 Rocket 4.2 20:17:44 13° S 20:22:50 80° E 20:28:26 10° NNE
USA 305 4.0 20:18:57 10° WNW 20:23:03 42° N 20:26:54 11° E
BREEZE-M R/B 2.8 20:23:27 10° WSW 20:24:57 31° SW 20:24:57 31° SW
Cosmos 1844 3.8 20:20:32 10° SSW 20:26:16 78° WNW 20:31:59 10° NNE
Cosmos 1812 3.3 20:25:46 34° ESE 20:26:26 37° E 20:30:02 10° NNE
Cosmos 1503 Rocket 3.9 20:22:02 10° SSW 20:27:13 86° ESE 20:32:27 10° NNE
Cosmos 1933 4.1 20:24:31 10° SSW 20:28:27 51° WNW 20:32:25 10° N
OE (NEXTSAT) 4.3 20:28:41 10° WSW 20:32:06 57° S 20:32:31 52° SSE
ERS-1 Rocket 2.9 20:31:15 28° SSE 20:33:56 89° WSW 20:39:00 10° NNW
[s.n.48335] 2.7 20:32:12 10° WSW 20:34:27 58° WSW 20:34:27 58° WSW
[s.n.48334] 2.8 20:32:16 10° WSW 20:34:30 57° WSW 20:34:30 57° WSW
[s.n.48333] 3.5 20:32:26 10° WSW 20:34:08 36° WSW 20:34:08 36° WSW
[s.n.48332] 2.8 20:32:22 10° WSW 20:34:36 57° WSW 20:34:36 57° WSW
[s.n.48331] 2.8 20:32:31 10° WSW 20:34:44 57° WSW 20:34:44 57° WSW
[s.n.48330] 3.5 20:32:41 10° WSW 20:34:23 36° WSW 20:34:23 36° WSW
[s.n.48329] 2.8 20:32:41 10° WSW 20:34:55 58° WSW 20:34:55 58° WSW
[s.n.48328] 3.5 20:32:50 10° WSW 20:34:31 36° WSW 20:34:31 36° WSW
[s.n.48327] 3.5 20:32:54 10° WSW 20:34:36 36° WSW 20:34:36 36° WSW
[s.n.48326] 2.9 20:32:54 10° WSW 20:35:01 52° WSW 20:35:01 52° WSW
Cosmos 1777 Rocket 4.4 20:33:54 31° SSE 20:35:46 43° ESE 20:40:41 10° NE
ARIANE 5 R/B 3.1 20:34:30 25° S 20:36:53 55° W 20:41:10 10° NNW
Cosmos 1151 Rocket 3.1 20:34:16 21° SSW 20:37:07 76° W 20:41:31 10° N
Cosmos 1437 2.4 20:38:09 65° ENE 20:38:09 65° ENE 20:40:48 10° NNE
[s.n.48324] 2.9 20:35:44 10° WSW 20:37:54 53° WSW 20:37:54 53° WSW
[s.n.48325] 3.0 20:36:23 10° WSW 20:38:31 51° WSW 20:38:31 51° WSW
[s.n.48323] 3.6 20:36:37 10° WSW 20:38:14 33° WSW 20:38:14 33° WSW
[s.n.48321] 3.6 20:36:50 10° WSW 20:38:27 33° WSW 20:38:27 33° WSW
[s.n.48320] 3.6 20:36:52 10° WSW 20:38:30 34° WSW 20:38:30 34° WSW
[s.n.48322] 3.0 20:36:48 10° WSW 20:38:55 50° WSW 20:38:55 50° WSW
[s.n.48319] 3.7 20:36:59 10° WSW 20:38:34 33° WSW 20:38:34 33° WSW
[s.n.48318] 3.7 20:36:59 10° WSW 20:38:35 33° WSW 20:38:35 33° WSW
ATLAS 5 CENTAUR R/B 2.4 20:34:05 10° NW 20:39:37 69° SW 20:42:54 30° SSE
[s.n.48317] 3.7 20:37:09 10° WSW 20:38:44 33° WSW 20:38:44 33° WSW
[s.n.48316] 3.7 20:37:13 10° WSW 20:38:49 33° WSW 20:38:49 33° WSW
[s.n.48315] 3.0 20:37:13 10° WSW 20:39:20 50° WSW 20:39:20 50° WSW
[s.n.48314] 3.0 20:37:18 10° WSW 20:39:26 51° WSW 20:39:26 51° WSW
[s.n.48313] 3.1 20:37:24 10° WSW 20:39:30 50° WSW 20:39:30 50° WSW
[s.n.48312] 3.1 20:37:28 10° WSW 20:39:34 49° WSW 20:39:34 49° WSW
[s.n.48311] 3.1 20:37:34 10° WSW 20:39:40 49° WSW 20:39:40 49° WSW
[s.n.48310] 3.2 20:37:36 10° WSW 20:39:33 44° WSW 20:39:33 44° WSW
[s.n.48309] 3.3 20:37:42 10° WSW 20:39:38 43° WSW 20:39:38 43° WSW
[s.n.48308] 3.0 20:37:47 10° WSW 20:39:55 51° WSW 20:39:55 51° WSW
[s.n.48307] 3.7 20:37:58 10° WSW 20:39:35 33° WSW 20:39:35 33° WSW
[s.n.48306] 3.1 20:37:56 10° WSW 20:40:02 49° WSW 20:40:02 49° WSW
[s.n.48305] 3.1 20:38:03 10° WSW 20:40:09 49° WSW 20:40:09 49° WSW
[s.n.48304] 3.7 20:38:12 10° WSW 20:39:47 32° WSW 20:39:47 32° WSW
[s.n.48303] 3.1 20:38:12 10° WSW 20:40:18 49° WSW 20:40:18 49° WSW
[s.n.48302] 3.1 20:38:17 10° WSW 20:40:22 49° WSW 20:40:22 49° WSW
[s.n.48301] 3.7 20:38:28 10° WSW 20:40:04 33° WSW 20:40:04 33° WSW
[s.n.48300] 3.7 20:38:31 10° WSW 20:40:06 32° WSW 20:40:06 32° WSW
[s.n.48299] 3.7 20:38:38 10° WSW 20:40:13 32° WSW 20:40:13 32° WSW
[s.n.48298] 3.1 20:38:38 10° WSW 20:40:42 48° WSW 20:40:42 48° WSW
[s.n.48297] 3.1 20:38:42 10° WSW 20:40:49 49° WSW 20:40:49 49° WSW
[s.n.48296] 3.1 20:38:48 10° WSW 20:40:54 49° WSW 20:40:54 49° WSW
[s.n.48295] 3.8 20:38:58 10° WSW 20:40:32 32° WSW 20:40:32 32° WSW
[s.n.48294] 3.8 20:39:04 10° WSW 20:40:38 32° WSW 20:40:38 32° WSW
[s.n.48293] 3.7 20:39:08 10° WSW 20:40:42 32° WSW 20:40:42 32° WSW
[s.n.48292] 3.1 20:39:07 10° WSW 20:41:11 48° WSW 20:41:11 48° WSW
[s.n.48291] 3.8 20:39:18 10° WSW 20:40:52 32° WSW 20:40:52 32° WSW
[s.n.48290] 3.8 20:39:20 10° WSW 20:40:55 32° WSW 20:40:55 32° WSW
[s.n.48289] 3.8 20:39:28 10° WSW 20:41:03 32° WSW 20:41:03 32° WSW
[s.n.48288] 3.8 20:39:32 10° WSW 20:41:06 32° WSW 20:41:06 32° WSW
USA 306 3.8 20:38:01 10° WNW 20:42:09 46° NNE 20:45:10 17° E
[s.n.48286] 3.8 20:39:36 10° WSW 20:41:11 32° WSW 20:41:11 32° WSW
[s.n.48287] 3.8 20:39:37 10° WSW 20:41:10 31° WSW 20:41:10 31° WSW
[s.n.48285] 3.8 20:39:48 10° WSW 20:41:21 31° WSW 20:41:21 31° WSW
CREW DRAGON DEMO-1 DEB 3.6 20:39:54 10° WNW 20:42:27 40° N 20:42:58 35° NE
[s.n.48284] 3.8 20:39:52 10° WSW 20:41:26 31° WSW 20:41:26 31° WSW
[s.n.48283] 3.8 20:39:58 10° WSW 20:41:32 31° WSW 20:41:32 31° WSW
[s.n.48282] 3.8 20:40:03 10° WSW 20:41:36 31° WSW 20:41:36 31° WSW
[s.n.48281] 3.2 20:40:04 10° WSW 20:42:08 48° W 20:42:08 48° W
[s.n.48280] 3.8 20:40:14 10° WSW 20:41:47 31° WSW 20:41:47 31° WSW
[s.n.48279] 3.8 20:40:18 10° WSW 20:41:50 31° WSW 20:41:50 31° WSW
[s.n.48278] 3.2 20:40:17 10° WSW 20:42:22 48° W 20:42:22 48° W
[s.n.48277] 3.8 20:40:28 10° WSW 20:42:01 31° WSW 20:42:01 31° WSW
H-2A R/B 3.6 20:38:59 10° NNE 20:43:08 55° E 20:44:10 43° SSE
[s.n.48276] 3.2 20:40:30 10° WSW 20:42:34 47° W 20:42:34 47° W
Cosmos 1833 Rocket 2.9 20:38:20 10° NNW 20:43:58 62° ENE 20:46:34 32° SE
Cosmos 2184 Rocket 4.2 20:38:18 10° N 20:44:29 59° ENE 20:47:23 31° SE
Cosmos 1515 Rocket 3.6 20:44:37 40° SSE 20:46:00 62° E 20:50:21 10° NNE
Cosmos 1666 2.7 20:47:40 10° N 20:51:24 61° ENE 20:51:54 54° ESE
Cosmos 2074 Rocket 4.0 20:48:32 10° N 20:54:51 72° E 20:57:46 34° SSE
Cosmos 1633 Rocket 4.1 20:52:15 10° NNW 20:56:21 39° W 20:58:36 23° SSW
Cosmos 1354 Rocket 4.4 20:52:07 10° SW 20:57:18 64° WNW 21:02:33 10° NNE
SPOT 5 3.4 20:55:30 29° SSW 20:57:54 57° W 21:03:03 10° NNW
Gbstr 26 Del rocket 4.5 20:50:42 10° W 20:58:24 70° N 21:04:49 10° ENE
Cosmos 1782 3.9 20:56:57 19° SW 20:59:29 42° WNW 21:03:19 10° N
Meteor 2-6 Rocket 4.0 21:00:22 35° S 21:02:43 78° E 21:08:13 10° NNE
Cosmos 1470 Rocket 4.0 20:59:12 10° NNW 21:03:36 57° W 21:05:12 36° SSW
COSMOS 2406 3.1 20:58:06 10° NNW 21:03:50 85° ENE 21:05:59 40° SSE
Nadezhda 1 Rocket 4.3 21:03:21 35° SE 21:05:37 50° E 21:11:40 10° NNE
Cosmos 2084 3.5 21:06:30 54° ESE 21:06:30 54° ESE 21:10:28 10° NE
USA 307 3.5 21:02:28 10° WNW 21:06:41 53° NNE 21:08:45 27° E
Meteor 1-11 Rocket 3.9 21:04:31 10° N 21:10:30 68° ENE 21:12:42 40° SE
Cosmos 2082 Rocket 2.5 21:07:17 10° NNW 21:12:49 56° ENE 21:14:57 35° ESE
Cosmos 1610 Rocket 4.5 21:10:13 10° N 21:16:22 68° ENE 21:18:36 40° SSE
Terra 2.3 21:14:54 35° SSW 21:16:34 52° W 21:21:14 10° NNW
Cosmos 1933 Rocket 3.8 21:14:05 10° NNW 21:18:22 60° W 21:19:23 46° SSW
SL-24 DEB 4.1 21:18:08 52° S 21:19:15 85° W 21:23:52 10° N
USA 308 3.3 21:15:52 10° WNW 21:20:08 59° NNE 21:21:39 36° E
NOSS 3-4 (A) 3.9 21:15:51 10° NW 21:22:44 72° NE 21:26:45 30° ESE
NOSS 3-4 (C) 3.9 21:15:58 10° NW 21:22:50 72° NE 21:26:51 30° ESE
Meteor 2-12 Rocket 4.3 21:17:14 10° N 21:23:20 84° E 21:25:31 43° SSE
Cosmos 1340 Rocket 3.6 21:22:30 10° N 21:26:21 38° ENE 21:26:33 38° E
Cosmos 1271 Rocket 2.6 21:27:36 78° SSW 21:27:52 89° WNW 21:31:54 10° NNE
CZ-4C R/B 3.0 21:20:49 10° NW 21:28:00 73° SW 21:31:36 37° SSE
Cosmos 1538 Rocket 4.2 21:27:06 10° NNW 21:32:27 64° WSW 21:33:50 46° SSW
NOSS 3-3 (A) 4.0 21:26:37 10° SW 21:32:28 79° NW 21:39:13 10° NE
Cosmos 1536 2.7 21:28:30 10° N 21:32:34 73° E 21:32:41 72° E
NOSS 3-3 (C) 4.0 21:26:44 10° SW 21:32:34 79° NW 21:39:18 10° NE
Cosmos 2228 Rocket 2.9 21:33:47 69° S 21:34:19 85° E 21:38:47 10° N
ATLAS 2AS CENTAUR R/B 3.2 21:29:01 10° NW 21:36:25 58° NE 21:40:34 25° ESE
Meteor 1-10 Rocket 4.3 21:34:26 37° SSW 21:36:42 74° WNW 21:42:21 10° N
Cosmos 2278 Rocket 2.1 21:36:18 37° SSW 21:38:39 90° NNW 21:44:22 10° NNE
USA 215 3.4 21:37:51 21° ESE 21:42:23 71° NNE 21:48:54 10° NW
Cosmos 1733 Rocket 3.8 21:39:13 10° N 21:43:15 37° ENE 21:43:30 37° E
SeaSat 1 4.2 21:42:40 10° ENE 21:45:09 18° E 21:45:09 18° E
SJ 16-02 1.4 21:47:16 62° SW 21:47:55 77° WNW 21:52:24 10° NNE
Cosmos 1680 Rocket 3.6 21:46:02 10° NNW 21:51:22 69° ENE 21:52:31 52° SE
Cosmos 2369 Rocket 4.2 21:52:21 13° E 21:52:21 13° E 21:54:34 10° ENE
Cosmos 1937 Rocket 4.3 22:00:13 34° E 22:00:13 34° E 22:04:37 10° NE
Cosmos 158 Rocket 4.0 21:56:08 10° NNW 22:00:55 57° WSW 22:01:24 54° SW
USA 305 2.9 21:59:00 10° WNW 22:02:57 74° W 22:02:57 74° W
Cosmos 44 4.1 22:01:48 10° NNW 22:07:10 54° NE 22:09:02 36° E
Cosmos 1943 Rocket 3.1 22:08:48 33° ESE 22:08:48 33° ESE 22:13:42 10° NE
Cosmos 1238 Rocket 3.9 22:04:33 10° N 22:11:05 75° E 22:12:33 53° SSE
Cosmos 1544 4.0 22:10:14 10° NNW 22:13:05 44° WNW 22:13:05 44° WNW
SL-8 Rocket 3.9 22:13:51 10° N 22:20:14 84° E 22:21:52 53° SSE
USA 306 3.5 22:18:02 10° WNW 22:21:14 47° W 22:21:14 47° W
Cosmos 1862 Rocket 3.7 22:23:04 61° ENE 22:23:04 61° ENE 22:27:04 10° NNE
ATLAS 5 CENTAUR R/B 4.3 22:20:25 10° WNW 22:23:42 15° WSW 22:24:26 15° WSW
Cosmos 923 Rocket 4.3 22:20:34 10° NNW 22:25:38 50° WSW 22:26:07 49° SW
Cosmos 1743 3.4 22:21:58 10° NNW 22:25:10 47° WNW 22:25:10 47° WNW
Cosmos 1833 Rocket 4.1 22:23:01 10° NW 22:27:27 24° WSW 22:28:16 23° WSW
Cosmos 1898 Rocket 3.4 22:30:44 69° S 22:31:22 83° ESE 22:36:44 10° NNE
SAR-Lupe-2 4.4 22:28:05 10° NNE 22:30:47 48° NNE 22:30:47 48° NNE
Cosmos 2297 3.7 22:31:05 60° SSE 22:31:43 65° ESE 22:37:22 10° NNE
ALOS 2 2.7 22:34:29 68° W 22:34:29 68° W 22:38:45 10° NNW
DNEPR-1 R/B 4.5 22:39:59 47° ESE 22:39:59 47° ESE 22:44:40 10° NE
ERBS 4.2 22:38:54 10° NW 22:41:50 28° NNE 22:42:19 27° NE
Gbstr 26 Del rocket 4.0 22:39:01 10° WNW 22:46:12 77° NNE 22:51:59 10° ESE
USA 307 4.3 22:42:32 10° WNW 22:44:51 29° W 22:44:51 29° W
Cosmos 1707 Rocket 4.4 22:46:33 40° W 22:46:52 41° WNW 22:51:02 10° N
Cosmos 864 Rocket 4.4 22:43:44 10° NNW 22:49:55 76° W 22:51:15 56° SSW
Cosmos 1959 Rocket 4.5 22:46:36 10° NNW 22:52:51 71° W 22:54:13 54° SSW
SL-24 R/B - RUBIN 2 3.8 22:47:18 10° NW 22:52:51 75° SW 22:53:03 73° SSW
Meteor 1-19 Rocket 4.1 22:55:00 62° SW 22:55:52 76° WNW 23:01:17 10° N
Cosmos 2242 Rocket 4.0 22:56:13 53° E 22:56:13 53° E 23:00:21 10° NNE
Cosmos 2082 Rocket 3.4 22:51:56 10° NW 22:56:34 27° WSW 22:56:47 27° WSW
Okean 1 4.1 22:57:49 46° WNW 22:57:49 46° WNW 23:01:26 10° N
Cosmos 2084 Rocket 3.5 22:54:26 10° NW 22:58:39 74° NE 22:58:39 74° NE
Cosmos 2181 Rocket 4.1 22:57:24 48° SW 22:59:03 66° WNW 23:05:12 10° N
COBE Rocket 4.2 23:02:19 54° WSW 23:02:35 55° W 23:07:36 10° NNW
Gblst 52 Del rocket 4.5 22:56:15 10° WNW 23:03:02 78° NNE 23:08:56 10° ESE
BREEZE-M DEB (TANK) 3.8 22:50:08 10° WNW 23:03:27 71° SSW 23:04:29 56° SSE
Okean 1-7 3.3 23:05:09 57° ENE 23:05:09 57° ENE 23:09:02 10° NNE
SL-16 R/B 4.3 23:07:27 10° ESE 23:12:32 27° ENE 23:17:37 10° N
Okean 3 4.4 23:13:00 38° E 23:13:00 38° E 23:16:49 10° NNE
Cosmos 372 Rocket 3.8 23:12:50 74° SSE 23:13:13 79° ESE 23:18:20 10° NNE
RESURS DK-1 3.7 23:09:27 10° NNW 23:13:21 36° NE 23:14:23 31° E
Helios 1A 4.1 23:13:41 34° E 23:14:18 36° ENE 23:18:07 10° N
CZ-4C R/B 4.4 23:10:42 10° WNW 23:15:53 20° WSW 23:16:47 20° WSW
Cosmos 2366 rocket 4.4 23:10:41 10° NNW 23:16:33 48° W 23:17:51 41° SW
Cosmos 1821 Rocket 4.0 23:12:36 10° N 23:19:04 86° E 23:20:50 51° SSE
Cosmos 1975 3.9 23:17:03 10° NNW 23:20:04 35° WNW 23:20:04 35° WNW
Meteor 1-13 Rocket 4.5 23:21:11 49° SE 23:22:11 56° E 23:27:37 10° NNE
Cosmos 2278 Rocket 4.3 23:19:17 10° W 23:23:33 21° NW 23:27:50 10° N
SeaSat 1 2.5 23:19:10 10° NNE 23:24:07 74° WNW 23:24:55 60° WSW
Resurs 1-4 Rocket 4.0 23:21:33 10° NE 23:25:10 18° E 23:26:48 16° ESE
USA 215 3.4 23:25:09 46° SSW 23:25:38 46° SW 23:31:54 10° WNW
ATLAS CENTAUR R/B 3.7 23:28:25 13° E 23:28:25 13° E 23:29:13 10° ENE
ATLAS 2AS CENTAUR R/B 3.1 23:20:26 10° NW 23:27:12 42° WSW 23:27:59 40° SW
SJ 16-02 4.1 23:25:26 10° WNW 23:27:19 12° NW 23:29:13 10° NNW
Cosmos 1934 Rocket 4.3 23:22:50 10° N 23:28:58 60° ENE 23:31:10 38° SE
Thor Agena Rocket 3.9 23:25:05 10° N 23:30:12 58° WNW 23:31:15 48° WSW
Cosmos 1818 3.6 23:25:05 10° NW 23:30:29 59° WSW 23:30:38 58° SW
Cosmos 1908 Rocket 4.1 23:26:33 10° NNW 23:30:37 46° W 23:30:37 46° W
Cosmos 2369 Rocket 2.1 23:34:06 61° S 23:35:05 80° ESE 23:40:45 10° NNE
SL-24 R/B 4.4 23:36:12 56° SE 23:37:03 70° ENE 23:41:28 10° N
Cosmos 1805 3.9 23:33:40 10° N 23:37:27 46° ENE 23:37:29 46° ENE
Cosmos 1300 Rocket 3.9 23:35:50 10° N 23:40:12 55° ENE 23:40:43 52° ESE
Cosmos 1766 4.4 23:36:51 10° N 23:40:33 35° ENE 23:41:03 34° E
Cosmos 2298 Rocket 4.0 23:40:47 59° SSE 23:41:32 66° ESE 23:46:48 10° NNE
Cosmos 1937 Rocket 4.5 23:40:21 31° W 23:41:54 38° WNW 23:46:44 10° N
Meteor 2-4 Rocket 4.1 23:42:44 44° WSW 23:44:10 54° WNW 23:49:45 10° N
Cosmos 1378 3.5 23:47:27 63° N 23:47:27 63° N 23:50:38 10° N
Cosmos 1048 Rocket 3.9 23:43:17 10° NNW 23:48:39 76° WSW 23:49:27 62° S
Cosmos 1733 3.8 23:45:04 10° N 23:48:46 49° ENE 23:48:46 49° ENE
Cosmos 2263 4.2 23:48:39 56° S 23:49:54 77° ESE 23:55:42 10° NNE
Cosmos 1943 Rocket 2.9 23:50:17 33° WSW 23:52:20 47° NW 23:57:45 10° NNE
Cosmos 2221 Rocket 4.1 23:53:21 48° ESE 23:53:57 51° E 23:58:23 10° NNE
